EN

Hourly Weather Uramita

Today, 24 November, Tuesday

Time Temperature Precipitation Wind Pressure Humidity
00:00 +22°C° 0.7 mm 0 mps 694 mmHg 98%
01:00 +22°C° 0 mm 0 mps 693 mmHg 98%
02:00 +22°C° 0.2 mm 0 mps 693 mmHg 98%
03:00 +21°C° 0.2 mm 0 mps 693 mmHg 97%
04:00 +21°C° 0.2 mm 0 mps 693 mmHg 97%
05:00 +24°C° 0 mm 1 mps 693 mmHg 97%
06:00 +24°C° 0 mm 1 mps 694 mmHg 96%
07:00 +24°C° 0 mm 1 mps 694 mmHg 95%
08:00 +26°C° 0.1 mm 1 mps 695 mmHg 86%
09:00 +28°C° 0.1 mm 1 mps 695 mmHg 77%
10:00 +30°C° 0.1 mm 1 mps 696 mmHg 67%
11:00 +30°C° 1.2 mm 1 mps 695 mmHg 73%
12:00 +30°C° 1.2 mm 1 mps 694 mmHg 79%
13:00 +29°C° 1.2 mm 1 mps 693 mmHg 85%
14:00 +29°C° 2.1 mm 1 mps 692 mmHg 88%
15:00 +28°C° 2.1 mm 1 mps 692 mmHg 92%
16:00 +27°C° 2.1 mm 1 mps 691 mmHg 96%
17:00 +26°C° 1.5 mm 1 mps 692 mmHg 96%
18:00 +25°C° 1.5 mm 1 mps 692 mmHg 97%
19:00 +25°C° 1.5 mm 1 mps 693 mmHg 98%
20:00 +22°C° 0.7 mm 0 mps 693 mmHg 98%
21:00 +22°C° 0.7 mm 0 mps 694 mmHg 98%
22:00 +22°C° 0.7 mm 0 mps 694 mmHg 98%
23:00 +22°C° 0.8 mm 0 mps 694 mmHg 98%

Tomorrow, 25 November, Wednesday

Time Temperature Precipitation Wind Pressure Humidity
00:00 +22°C° 0.8 mm 0 mps 693 mmHg 98%
01:00 +22°C° 0.8 mm 0 mps 693 mmHg 98%
02:00 +22°C° 1.3 mm 0 mps 693 mmHg 98%
03:00 +22°C° 1.3 mm 0 mps 693 mmHg 98%
04:00 +22°C° 1.3 mm 0 mps 693 mmHg 98%
05:00 +22°C° 1.3 mm 0 mps 693 mmHg 98%
06:00 +22°C° 1.3 mm 0 mps 693 mmHg 98%
07:00 +22°C° 1.3 mm 0 mps 694 mmHg 98%
08:00 +23°C° 1.1 mm 0 mps 694 mmHg 96%
09:00 +24°C° 1.1 mm 0 mps 695 mmHg 94%
10:00 +27°C° 1.1 mm 1 mps 695 mmHg 92%
11:00 +27°C° 2 mm 1 mps 694 mmHg 92%
12:00 +27°C° 2 mm 1 mps 694 mmHg 93%
13:00 +27°C° 2 mm 1 mps 693 mmHg 93%
14:00 +27°C° 1.7 mm 1 mps 693 mmHg 95%
15:00 +26°C° 1.7 mm 1 mps 692 mmHg 96%
16:00 +25°C° 1.7 mm 1 mps 692 mmHg 97%
17:00 +25°C° 1 mm 1 mps 692 mmHg 98%
18:00 +24°C° 1 mm 1 mps 693 mmHg 98%
19:00 +24°C° 1 mm 1 mps 693 mmHg 99%
20:00 +24°C° 0.4 mm 1 mps 694 mmHg 98%
21:00 +21°C° 0.4 mm 0 mps 694 mmHg 98%
22:00 +21°C° 0.4 mm 0 mps 694 mmHg 98%
23:00 +21°C° 0.1 mm 0 mps 694 mmHg 98%

Day after tomorrow, 26 November, Thursday

Time Temperature Precipitation Wind Pressure Humidity
00:00 +21°C° 0.1 mm 0 mps 694 mmHg 98%
01:00 +21°C° 0.1 mm 0 mps 693 mmHg 97%
02:00 +21°C° 0 mm 0 mps 693 mmHg 97%
03:00 +20°C° 0 mm 0 mps 693 mmHg 97%
04:00 +20°C° 0 mm 0 mps 693 mmHg 97%
05:00 +20°C° 0 mm 0 mps 693 mmHg 96%
06:00 +23°C° 0 mm 1 mps 693 mmHg 96%
07:00 +23°C° 0 mm 1 mps 694 mmHg 95%
08:00 +24°C° 0.4 mm 1 mps 694 mmHg 93%
09:00 +25°C° 0.4 mm 1 mps 695 mmHg 92%
10:00 +26°C° 0.4 mm 1 mps 695 mmHg 90%
11:00 +26°C° 1.1 mm 1 mps 694 mmHg 91%
12:00 +26°C° 1.1 mm 1 mps 694 mmHg 93%
13:00 +26°C° 1.1 mm 1 mps 693 mmHg 94%
14:00 +25°C° 1.1 mm 1 mps 693 mmHg 95%
15:00 +25°C° 1.1 mm 1 mps 692 mmHg 96%
16:00 +25°C° 1.1 mm 1 mps 692 mmHg 97%
17:00 +24°C° 0.6 mm 1 mps 692 mmHg 98%
18:00 +24°C° 0.6 mm 1 mps 692 mmHg 98%
19:00 +21°C° 0.6 mm 0 mps 693 mmHg 98%
20:00 +21°C° 0.1 mm 0 mps 693 mmHg 98%
21:00 +21°C° 0.1 mm 0 mps 694 mmHg 97%
22:00 +20°C° 0.1 mm 0 mps 694 mmHg 97%
23:00 +20°C° 0.2 mm 0 mps 694 mmHg 97%

27 November, Friday

Time Temperature Precipitation Wind Pressure Humidity
00:00 +20°C° 0.2 mm 0 mps 694 mmHg 97%
01:00 +20°C° 0.2 mm 0 mps 693 mmHg 97%
02:00 +20°C° 0.2 mm 0 mps 693 mmHg 97%
03:00 +20°C° 0.2 mm 0 mps 693 mmHg 97%
04:00 +20°C° 0.2 mm 0 mps 693 mmHg 97%
05:00 +20°C° 0.1 mm 0 mps 693 mmHg 96%
06:00 +22°C° 0.1 mm 1 mps 694 mmHg 96%
07:00 +23°C° 0.1 mm 1 mps 694 mmHg 95%
08:00 +24°C° 0.2 mm 1 mps 694 mmHg 93%
09:00 +23°C° 0.2 mm 0 mps 695 mmHg 91%
10:00 +24°C° 0.2 mm 0 mps 695 mmHg 90%
11:00 +26°C° 0.8 mm 1 mps 694 mmHg 89%
12:00 +27°C° 0.8 mm 1 mps 694 mmHg 88%
13:00 +27°C° 0.8 mm 1 mps 693 mmHg 87%
14:00 +27°C° 1.3 mm 1 mps 693 mmHg 90%
15:00 +26°C° 1.3 mm 1 mps 692 mmHg 92%
16:00 +25°C° 1.3 mm 1 mps 692 mmHg 95%
17:00 +25°C° 1.7 mm 1 mps 692 mmHg 96%
18:00 +22°C° 1.7 mm 0 mps 693 mmHg 97%
19:00 +21°C° 1.7 mm 0 mps 693 mmHg 99%
20:00 +21°C° 0.2 mm 0 mps 693 mmHg 98%
21:00 +21°C° 0.2 mm 0 mps 694 mmHg 98%
22:00 +21°C° 0.2 mm 0 mps 694 mmHg 97%
23:00 +21°C° 0.2 mm 0 mps 694 mmHg 97%

28 November, Saturday

Time Temperature Precipitation Wind Pressure Humidity
00:00 +20°C° 0.2 mm 0 mps 694 mmHg 98%
01:00 +20°C° 0.2 mm 0 mps 693 mmHg 98%
02:00 +20°C° 0.2 mm 0 mps 693 mmHg 97%
03:00 +20°C° 0.2 mm 0 mps 693 mmHg 97%
04:00 +20°C° 0.2 mm 0 mps 693 mmHg 97%
05:00 +21°C° 0 mm 0 mps 693 mmHg 96%
06:00 +21°C° 0 mm 0 mps 694 mmHg 96%
07:00 +21°C° 0 mm 0 mps 694 mmHg 95%
08:00 +23°C° 0.2 mm 0 mps 695 mmHg 90%
09:00 +26°C° 0.2 mm 1 mps 695 mmHg 85%
10:00 +28°C° 0.2 mm 1 mps 696 mmHg 80%
11:00 +27°C° 1.5 mm 1 mps 695 mmHg 84%
12:00 +27°C° 1.5 mm 1 mps 694 mmHg 89%
13:00 +27°C° 1.5 mm 1 mps 693 mmHg 93%
14:00 +27°C° 1.5 mm 1 mps 693 mmHg 93%
15:00 +26°C° 1.5 mm 1 mps 692 mmHg 94%
16:00 +26°C° 1.5 mm 1 mps 692 mmHg 95%
17:00 +25°C° 1.1 mm 1 mps 692 mmHg 96%
18:00 +22°C° 1.1 mm 0 mps 693 mmHg 98%
19:00 +22°C° 1.1 mm 0 mps 693 mmHg 99%
20:00 +22°C° 1.4 mm 0 mps 694 mmHg 99%
21:00 +22°C° 1.4 mm 0 mps 694 mmHg 99%
22:00 +21°C° 1.4 mm 0 mps 694 mmHg 99%
23:00 +21°C° 1.9 mm 0 mps 694 mmHg 98%

29 November, Sunday

Time Temperature Precipitation Wind Pressure Humidity
00:00 +21°C° 1.9 mm 0 mps 694 mmHg 98%
01:00 +21°C° 1.9 mm 0 mps 694 mmHg 98%
02:00 +21°C° 1.4 mm 0 mps 694 mmHg 98%
03:00 +21°C° 1.4 mm 0 mps 693 mmHg 98%
04:00 +21°C° 1.4 mm 0 mps 693 mmHg 98%
05:00 +21°C° 1.3 mm 0 mps 694 mmHg 98%
06:00 +21°C° 1.3 mm 0 mps 694 mmHg 98%
07:00 +21°C° 1.3 mm 0 mps 694 mmHg 97%
08:00 +22°C° 0.4 mm 0 mps 695 mmHg 96%
09:00 +22°C° 0.4 mm 0 mps 695 mmHg 94%
10:00 +23°C° 0.4 mm 0 mps 696 mmHg 93%
11:00 +24°C° 0.5 mm 0 mps 695 mmHg 89%
12:00 +27°C° 0.5 mm 1 mps 694 mmHg 85%
13:00 +28°C° 0.5 mm 1 mps 694 mmHg 81%
14:00 +27°C° 0.7 mm 1 mps 693 mmHg 86%
15:00 +26°C° 0.7 mm 1 mps 693 mmHg 91%
16:00 +25°C° 0.7 mm 1 mps 693 mmHg 96%
17:00 +23°C° 0.3 mm 0 mps 693 mmHg 97%
18:00 +22°C° 0.3 mm 0 mps 693 mmHg 98%
19:00 +22°C° 0.3 mm 0 mps 694 mmHg 99%
20:00 +22°C° 0.1 mm 0 mps 694 mmHg 99%
21:00 +21°C° 0.1 mm 0 mps 695 mmHg 99%
22:00 +21°C° 0.1 mm 0 mps 695 mmHg 99%
23:00 +21°C° 0.1 mm 0 mps 695 mmHg 98%
Show more

We Need Your Consent

Meteoprog and our Service Providers may store and access personal data such as cookies, device identifiers or other similar technologies on your device and process such data to personalise content and ads, as well as provide social media features and to analyse the traffic.

  • Store and/or access information on your device

    Cookies, device identifiers or other information can be stored or accessed on your device for the purposes indicated above.

  • Personalised ads and content, ad and content measurement, audience insights, and products development

    Ads and content can be personalised based on a profile. More data can be added to better personalise ads and content. Ad and content performance can be measured. Insights about the audience who saw the ads and content can be derived. Such data can be used to develop or improve user’s experience, systems and software.

By clicking ‘I Agree’ you will allow the use of indicated cookies, device identifiers, web beacons or other similar technologies. Your settings can be changed in the browser on your device.

For certain purposes, legitimate interests may be relied on, rather than consent. You can read more about this in our Privacy and Cookie Policy.